Date String (YYYY-MM-DD hh:mm:ss) UTC,Instrument flags,Ambient pressure (hPa),Sample flow (lpm),Bypass flow (lpm),Sample temperature (°C),Ambient temperature (°C),ASC tube jacket temperature (°C),LED temperature (°C),Box temperature (°C),Sample RH (%),Span deviation,Mass concentration (μg/m³),Mass concentration (μg/m³),Mass concentration (μg/m³)
DateTimeUTC,F1_M11,P_M11,Q1_M11,Q2_M11,T1_M11,T2_M11,T3_M11,T4_M11,T5_M11,U1_M11,ZSPAN_M11,X0_M11,X2_M11,X1_M11
2022-02-10 05:00:00,,0830.5,5.01,0.00,24.8,24.1,00.0,33.8,26.6,14.5,0000.0,0008.29,0003.32,0002.46
2022-02-10 05:01:00,,0830.6,4.99,0.00,24.8,24.0,00.0,33.8,26.6,14.5,0000.0,0008.30,0003.30,0002.42
2022-02-10 05:02:00,,0830.6,5.00,0.00,24.8,24.0,00.0,33.8,26.6,14.6,0000.0,0007.88,0003.25,0002.35
2022-02-10 05:03:00,,0830.5,5.01,0.00,24.8,24.0,00.0,33.8,26.5,14.6,0000.0,0008.19,0003.17,0002.30
2022-02-10 05:04:00,,0830.5,4.99,0.00,24.7,23.9,00.0,33.8,26.5,14.5,0000.0,0008.57,0003.18,0002.30
2022-02-10 05:05:00,,0830.6,5.01,0.00,24.7,23.9,00.0,33.8,26.5,14.6,0000.0,0008.61,0003.16,0002.28
2022-02-10 05:06:00,,0830.6,5.00,0.00,24.7,23.8,00.0,33.8,26.4,14.6,0000.0,0008.16,0003.14,0002.25
2022-02-10 05:07:00,,0830.7,5.00,0.00,24.7,23.8,00.0,33.8,26.4,14.5,0000.0,0008.44,0003.15,0002.29
2022-02-10 05:08:00,,0830.7,4.99,0.00,24.6,23.7,00.0,33.7,26.3,14.5,0000.0,0008.39,0003.19,0002.33
2022-02-10 05:09:00,,0830.7,5.00,0.00,24.6,23.7,00.0,33.7,26.3,14.6,0000.0,0007.89,0003.21,0002.36
2022-02-10 05:10:00,,0830.7,5.00,0.00,24.5,23.7,00.0,33.7,26.2,14.7,0000.0,0007.98,0003.23,0002.38
2022-02-10 05:11:00,,0830.8,5.00,0.00,24.5,23.6,00.0,33.7,26.2,14.7,0000.0,0007.75,0003.22,0002.42
2022-02-10 05:12:00,,0830.7,4.99,0.00,24.5,23.6,00.0,33.7,26.2,14.7,0000.0,0007.91,0003.23,0002.49
2022-02-10 05:13:00,,0830.7,5.02,0.00,24.4,23.5,00.0,33.6,26.1,14.8,0000.0,0008.61,0003.29,0002.55
2022-02-10 05:14:00,,0830.7,5.00,0.00,24.4,23.5,00.0,33.6,26.1,14.8,0000.0,0008.60,0003.35,0002.61
2022-02-10 05:15:00,,0830.7,5.00,0.00,24.4,23.6,00.0,33.6,26.1,14.8,0000.0,0008.99,0003.33,0002.61
2022-02-10 05:16:00,,0830.6,5.01,0.00,24.4,23.6,00.0,33.6,26.1,14.8,0000.0,0009.55,0003.35,0002.63
2022-02-10 05:17:00,,0830.5,4.99,0.00,24.4,23.6,00.0,33.5,26.1,14.8,0000.0,0010.03,0003.37,0002.67
2022-02-10 05:18:00,,0830.5,5.02,0.00,24.4,23.5,00.0,33.5,26.1,14.8,0000.0,0009.70,0003.36,0002.66
2022-02-10 05:19:00,,0830.5,4.99,0.00,24.3,23.5,00.0,33.5,26.0,14.8,0000.0,0009.84,0003.37,0002.67
2022-02-10 05:20:00,,0830.5,4.99,0.00,24.3,23.4,00.0,33.5,26.0,14.8,0000.0,0009.87,0003.36,0002.66
2022-02-10 05:21:00,,0830.3,5.02,0.00,24.3,23.4,00.0,33.5,25.9,14.8,0000.0,0009.91,0003.37,0002.68
2022-02-10 05:22:00,,0830.4,4.99,0.00,24.2,23.3,00.0,33.4,25.9,14.9,0000.0,0010.24,0003.40,0002.69
2022-02-10 05:23:00,,0830.3,5.01,0.00,24.2,23.3,00.0,33.4,25.9,14.9,0000.0,0010.86,0003.43,0002.68
2022-02-10 05:24:00,,0830.2,4.99,0.00,24.2,23.3,00.0,33.4,25.9,14.9,0000.0,0010.14,0003.40,0002.67
2022-02-10 05:25:00,,0830.2,5.00,0.00,24.1,23.2,00.0,33.4,25.8,14.9,0000.0,0009.77,0003.41,0002.70
2022-02-10 05:26:00,,0830.1,5.01,0.00,24.1,23.2,00.0,33.3,25.7,15.0,0000.0,0008.87,0003.39,0002.72
2022-02-10 05:27:00,,0830.1,4.99,0.00,24.0,23.1,00.0,33.3,25.6,15.0,0000.0,0008.79,0003.39,0002.74
2022-02-10 05:28:00,,0830.2,5.01,0.00,24.0,23.1,00.0,33.3,25.6,15.1,0000.0,0008.55,0003.38,0002.75
2022-02-10 05:29:00,,0830.2,4.99,0.00,24.0,23.0,00.0,33.2,25.6,15.1,0000.0,0008.69,0003.40,0002.76
2022-02-10 05:30:00,,0830.2,5.00,0.00,23.9,23.0,00.0,33.2,25.5,15.2,0000.0,0008.54,0003.35,0002.74
2022-02-10 05:31:00,,0830.1,5.00,0.00,23.9,23.0,00.0,33.2,25.5,15.3,0000.0,0008.86,0003.34,0002.73
2022-02-10 05:32:00,,0830.1,4.99,0.00,23.8,22.9,00.0,33.1,25.4,15.4,0000.0,0008.89,0003.32,0002.72
2022-02-10 05:33:00,,0830.1,5.01,0.00,23.8,22.8,00.0,33.1,25.3,15.4,0000.0,0008.93,0003.34,0002.70
2022-02-10 05:34:00,,0830.1,5.00,0.00,23.7,22.8,00.0,33.0,25.3,15.5,0000.0,0008.10,0003.31,0002.68
2022-02-10 05:35:00,,0830.1,5.01,0.00,23.7,22.7,00.0,33.0,25.2,15.6,0000.0,0007.95,0003.31,0002.66
2022-02-10 05:36:00,,0830.1,4.98,0.00,23.6,22.7,00.0,33.0,25.1,15.6,0000.0,0007.93,0003.28,0002.61
2022-02-10 05:37:00,,0830.1,5.02,0.00,23.6,22.6,00.0,32.9,25.1,15.7,0000.0,0008.55,0003.25,0002.55
2022-02-10 05:38:00,,0830.2,4.99,0.00,23.5,22.6,00.0,32.9,25.1,15.7,0000.0,0008.28,0003.22,0002.48
2022-02-10 05:39:00,,0830.1,5.01,0.00,23.5,22.6,00.0,32.9,25.1,15.7,0000.0,0007.77,0003.20,0002.43
2022-02-10 05:40:00,,0830.2,5.00,0.00,23.5,22.6,00.0,32.8,25.1,15.7,0000.0,0008.25,0003.18,0002.39
2022-02-10 05:41:00,,0830.2,5.00,0.00,23.5,22.6,00.0,32.8,25.1,15.8,0000.0,0008.52,0003.14,0002.36
2022-02-10 05:42:00,,0830.1,5.00,0.00,23.4,22.5,00.0,32.8,25.0,15.9,0000.0,0008.02,0003.12,0002.33
2022-02-10 05:43:00,,0830.2,4.99,0.00,23.4,22.5,00.0,32.7,25.0,15.9,0000.0,0007.85,0003.07,0002.29
2022-02-10 05:44:00,,0830.1,5.02,0.00,23.4,22.6,00.0,32.7,25.0,15.9,0000.0,0007.65,0002.97,0002.26
2022-02-10 05:45:00,,0830.2,4.99,0.00,23.4,22.6,00.0,32.7,25.1,15.9,0000.0,0007.74,0002.97,0002.25
2022-02-10 05:46:00,,0830.2,5.00,0.00,23.4,22.6,00.0,32.7,25.1,15.9,0000.0,0007.95,0002.99,0002.25
2022-02-10 05:47:00,,0830.2,5.00,0.00,23.4,22.6,00.0,32.6,25.1,15.9,0000.0,0007.99,0003.04,0002.26
2022-02-10 05:48:00,,0830.2,5.01,0.00,23.4,22.6,00.0,32.6,25.1,15.8,0000.0,0007.37,0003.04,0002.26
2022-02-10 05:49:00,,0830.2,4.99,0.00,23.4,22.7,00.0,32.6,25.1,15.8,0000.0,0007.36,0003.05,0002.26
2022-02-10 05:50:00,,0830.1,5.00,0.00,23.4,22.7,00.0,32.6,25.1,15.8,0000.0,0007.66,0003.03,0002.26
2022-02-10 05:51:00,,0830.2,5.01,0.00,23.4,22.6,00.0,32.6,25.1,15.8,0000.0,0007.57,0003.00,0002.25
2022-02-10 05:52:00,,0830.1,4.99,0.00,23.4,22.7,00.0,32.6,25.1,15.8,0000.0,0007.39,0003.02,0002.26
2022-02-10 05:53:00,,0830.1,5.01,0.00,23.4,22.6,00.0,32.5,25.1,15.7,0000.0,0007.35,0003.00,0002.27
2022-02-10 05:54:00,,0830.1,4.99,0.00,23.4,22.6,00.0,32.5,25.1,15.7,0000.0,,,
